site,time,unit,value
Pendine,2024-05-04T00:05:00+01:00,MW,-0.616
Pendine,2024-05-04T00:10:00+01:00,MW,-0.578
Pendine,2024-05-04T00:15:00+01:00,MW,-0.621
Pendine,2024-05-04T00:20:00+01:00,MW,-0.612
Pendine,2024-05-04T00:25:00+01:00,MW,-0.618
Pendine,2024-05-04T00:30:00+01:00,MW,-0.59
Pendine,2024-05-04T00:35:00+01:00,MW,-0.562
Pendine,2024-05-04T00:40:00+01:00,MW,-0.579
Pendine,2024-05-04T00:45:00+01:00,MW,-0.566
Pendine,2024-05-04T00:50:00+01:00,MW,-0.572
Pendine,2024-05-04T00:55:00+01:00,MW,-0.566
Pendine,2024-05-04T01:00:00+01:00,MW,-0.57
Pendine,2024-05-04T01:05:00+01:00,MW,-0.572
Pendine,2024-05-04T01:10:00+01:00,MW,-0.574
Pendine,2024-05-04T01:15:00+01:00,MW,-0.58
Pendine,2024-05-04T01:20:00+01:00,MW,-0.559
Pendine,2024-05-04T01:25:00+01:00,MW,-0.611
Pendine,2024-05-04T01:30:00+01:00,MW,-0.609
Pendine,2024-05-04T01:35:00+01:00,MW,-0.65
Pendine,2024-05-04T01:40:00+01:00,MW,-0.666
Pendine,2024-05-04T01:45:00+01:00,MW,-0.652
Pendine,2024-05-04T01:50:00+01:00,MW,-0.661
Pendine,2024-05-04T01:55:00+01:00,MW,-0.656
Pendine,2024-05-04T02:00:00+01:00,MW,-0.659
Pendine,2024-05-04T02:05:00+01:00,MW,-0.651
Pendine,2024-05-04T02:10:00+01:00,MW,-0.612
Pendine,2024-05-04T02:15:00+01:00,MW,-0.611
Pendine,2024-05-04T02:20:00+01:00,MW,-0.619
Pendine,2024-05-04T02:25:00+01:00,MW,-0.611
Pendine,2024-05-04T02:30:00+01:00,MW,-0.609
Pendine,2024-05-04T02:35:00+01:00,MW,-0.598
Pendine,2024-05-04T02:40:00+01:00,MW,-0.603
Pendine,2024-05-04T02:45:00+01:00,MW,-0.608
Pendine,2024-05-04T02:50:00+01:00,MW,-0.613
Pendine,2024-05-04T02:55:00+01:00,MW,-0.618
Pendine,2024-05-04T03:00:00+01:00,MW,-0.623
Pendine,2024-05-04T03:05:00+01:00,MW,-0.628
Pendine,2024-05-04T03:10:00+01:00,MW,-0.633
Pendine,2024-05-04T03:15:00+01:00,MW,-0.612
Pendine,2024-05-04T03:20:00+01:00,MW,-0.583
Pendine,2024-05-04T03:25:00+01:00,MW,-0.572
Pendine,2024-05-04T03:30:00+01:00,MW,-0.562
Pendine,2024-05-04T03:35:00+01:00,MW,-0.555
Pendine,2024-05-04T03:40:00+01:00,MW,-0.578
Pendine,2024-05-04T03:45:00+01:00,MW,-0.573
Pendine,2024-05-04T03:50:00+01:00,MW,-0.564
Pendine,2024-05-04T03:55:00+01:00,MW,-0.554
Pendine,2024-05-04T04:00:00+01:00,MW,-0.568
Pendine,2024-05-04T04:05:00+01:00,MW,-0.582
Pendine,2024-05-04T04:10:00+01:00,MW,-0.577
Pendine,2024-05-04T04:15:00+01:00,MW,-0.576
Pendine,2024-05-04T04:20:00+01:00,MW,-0.57
Pendine,2024-05-04T04:25:00+01:00,MW,-0.567
Pendine,2024-05-04T04:30:00+01:00,MW,-0.558
Pendine,2024-05-04T04:35:00+01:00,MW,-0.566
Pendine,2024-05-04T04:40:00+01:00,MW,-0.58
Pendine,2024-05-04T04:45:00+01:00,MW,-0.568
Pendine,2024-05-04T04:50:00+01:00,MW,-0.555
Pendine,2024-05-04T04:55:00+01:00,MW,-0.562
Pendine,2024-05-04T05:00:00+01:00,MW,-0.569
Pendine,2024-05-04T05:05:00+01:00,MW,-0.576
Pendine,2024-05-04T05:10:00+01:00,MW,-0.582
Pendine,2024-05-04T05:15:00+01:00,MW,-0.589
Pendine,2024-05-04T05:20:00+01:00,MW,-0.597
Pendine,2024-05-04T05:25:00+01:00,MW,-0.606
Pendine,2024-05-04T05:30:00+01:00,MW,-0.616
Pendine,2024-05-04T05:35:00+01:00,MW,-0.625
Pendine,2024-05-04T05:40:00+01:00,MW,-0.628
Pendine,2024-05-04T05:45:00+01:00,MW,-0.606
Pendine,2024-05-04T05:50:00+01:00,MW,-0.581
Pendine,2024-05-04T05:55:00+01:00,MW,-0.568
Pendine,2024-05-04T06:00:00+01:00,MW,-0.555
Pendine,2024-05-04T06:05:00+01:00,MW,-0.594
Pendine,2024-05-04T06:10:00+01:00,MW,-0.603
Pendine,2024-05-04T06:15:00+01:00,MW,-0.61
Pendine,2024-05-04T06:20:00+01:00,MW,-0.618
Pendine,2024-05-04T06:25:00+01:00,MW,-0.625
Pendine,2024-05-04T06:30:00+01:00,MW,-0.632
Pendine,2024-05-04T06:35:00+01:00,MW,-0.619
Pendine,2024-05-04T06:40:00+01:00,MW,-0.619
Pendine,2024-05-04T06:45:00+01:00,MW,-0.616
Pendine,2024-05-04T06:50:00+01:00,MW,-0.635
Pendine,2024-05-04T06:55:00+01:00,MW,-0.667
Pendine,2024-05-04T07:00:00+01:00,MW,-0.666
Pendine,2024-05-04T07:05:00+01:00,MW,-0.661
Pendine,2024-05-04T07:10:00+01:00,MW,-0.654
Pendine,2024-05-04T07:15:00+01:00,MW,-0.663
Pendine,2024-05-04T07:20:00+01:00,MW,-0.655
Pendine,2024-05-04T07:25:00+01:00,MW,-0.66
Pendine,2024-05-04T07:30:00+01:00,MW,-0.661
Pendine,2024-05-04T07:35:00+01:00,MW,-0.685
Pendine,2024-05-04T07:40:00+01:00,MW,-0.697
Pendine,2024-05-04T07:45:00+01:00,MW,-0.704
Pendine,2024-05-04T07:50:00+01:00,MW,-0.715
Pendine,2024-05-04T07:55:00+01:00,MW,-0.699
Pendine,2024-05-04T08:00:00+01:00,MW,-0.669
Pendine,2024-05-04T08:05:00+01:00,MW,-0.715
Pendine,2024-05-04T08:10:00+01:00,MW,-0.694
Pendine,2024-05-04T08:15:00+01:00,MW,-0.709
Pendine,2024-05-04T08:20:00+01:00,MW,-0.677
Pendine,2024-05-04T08:25:00+01:00,MW,-0.653
Pendine,2024-05-04T08:30:00+01:00,MW,-0.684
Pendine,2024-05-04T08:35:00+01:00,MW,-0.708
Pendine,2024-05-04T08:40:00+01:00,MW,-0.704
Pendine,2024-05-04T08:45:00+01:00,MW,-0.701
Pendine,2024-05-04T08:50:00+01:00,MW,-0.71
Pendine,2024-05-04T08:55:00+01:00,MW,-0.698
Pendine,2024-05-04T09:00:00+01:00,MW,-0.709
Pendine,2024-05-04T09:05:00+01:00,MW,-0.7
Pendine,2024-05-04T09:10:00+01:00,MW,-0.675
Pendine,2024-05-04T09:15:00+01:00,MW,-0.678
Pendine,2024-05-04T09:20:00+01:00,MW,-0.667
Pendine,2024-05-04T09:25:00+01:00,MW,-0.666
Pendine,2024-05-04T09:30:00+01:00,MW,-0.66
Pendine,2024-05-04T09:35:00+01:00,MW,-0.661
Pendine,2024-05-04T09:40:00+01:00,MW,-0.669
Pendine,2024-05-04T09:45:00+01:00,MW,-0.659
Pendine,2024-05-04T09:50:00+01:00,MW,-0.661
Pendine,2024-05-04T09:55:00+01:00,MW,-0.65
Pendine,2024-05-04T10:00:00+01:00,MW,-0.616
Pendine,2024-05-04T10:05:00+01:00,MW,-0.617
Pendine,2024-05-04T10:10:00+01:00,MW,-0.616
Pendine,2024-05-04T10:15:00+01:00,MW,-0.613
Pendine,2024-05-04T10:20:00+01:00,MW,-0.613
Pendine,2024-05-04T10:25:00+01:00,MW,-0.588
Pendine,2024-05-04T10:30:00+01:00,MW,-0.618
Pendine,2024-05-04T10:35:00+01:00,MW,-0.616
Pendine,2024-05-04T10:40:00+01:00,MW,-0.603
Pendine,2024-05-04T10:45:00+01:00,MW,-0.583
Pendine,2024-05-04T10:50:00+01:00,MW,-0.572
Pendine,2024-05-04T10:55:00+01:00,MW,-0.57
Pendine,2024-05-04T11:00:00+01:00,MW,-0.567
Pendine,2024-05-04T11:05:00+01:00,MW,-0.568
Pendine,2024-05-04T11:10:00+01:00,MW,-0.571
Pendine,2024-05-04T11:15:00+01:00,MW,-0.568
Pendine,2024-05-04T11:20:00+01:00,MW,-0.528
Pendine,2024-05-04T11:25:00+01:00,MW,-0.533
Pendine,2024-05-04T11:30:00+01:00,MW,-0.575
Pendine,2024-05-04T11:35:00+01:00,MW,-0.565
Pendine,2024-05-04T11:40:00+01:00,MW,-0.505
Pendine,2024-05-04T11:45:00+01:00,MW,-0.489
Pendine,2024-05-04T11:50:00+01:00,MW,-0.475
Pendine,2024-05-04T11:55:00+01:00,MW,-0.504
Pendine,2024-05-04T12:00:00+01:00,MW,-0.509
Pendine,2024-05-04T12:05:00+01:00,MW,-0.491
Pendine,2024-05-04T12:10:00+01:00,MW,-0.531
Pendine,2024-05-04T12:15:00+01:00,MW,-0.523
Pendine,2024-05-04T12:20:00+01:00,MW,-0.478
Pendine,2024-05-04T12:25:00+01:00,MW,-0.482
Pendine,2024-05-04T12:30:00+01:00,MW,-0.48
Pendine,2024-05-04T12:35:00+01:00,MW,-0.484
Pendine,2024-05-04T12:40:00+01:00,MW,-0.503
Pendine,2024-05-04T12:45:00+01:00,MW,-0.479
Pendine,2024-05-04T12:50:00+01:00,MW,-0.493
Pendine,2024-05-04T12:55:00+01:00,MW,-0.477
Pendine,2024-05-04T13:00:00+01:00,MW,-0.476
Pendine,2024-05-04T13:05:00+01:00,MW,-0.482
Pendine,2024-05-04T13:10:00+01:00,MW,-0.48
Pendine,2024-05-04T13:15:00+01:00,MW,-0.482
Pendine,2024-05-04T13:20:00+01:00,MW,-0.481
Pendine,2024-05-04T13:25:00+01:00,MW,-0.475
Pendine,2024-05-04T13:30:00+01:00,MW,-0.484
Pendine,2024-05-04T13:35:00+01:00,MW,-0.463
Pendine,2024-05-04T13:40:00+01:00,MW,-0.479
Pendine,2024-05-04T13:45:00+01:00,MW,-0.475
Pendine,2024-05-04T13:50:00+01:00,MW,-0.492
Pendine,2024-05-04T13:55:00+01:00,MW,-0.448
Pendine,2024-05-04T14:00:00+01:00,MW,-0.431
Pendine,2024-05-04T14:05:00+01:00,MW,-0.443
Pendine,2024-05-04T14:10:00+01:00,MW,-0.433
Pendine,2024-05-04T14:15:00+01:00,MW,-0.47
Pendine,2024-05-04T14:20:00+01:00,MW,-0.482
Pendine,2024-05-04T14:25:00+01:00,MW,-0.479
Pendine,2024-05-04T14:30:00+01:00,MW,-0.474
Pendine,2024-05-04T14:35:00+01:00,MW,-0.492
Pendine,2024-05-04T14:40:00+01:00,MW,-0.492
Pendine,2024-05-04T14:45:00+01:00,MW,-0.522
Pendine,2024-05-04T14:50:00+01:00,MW,-0.534
Pendine,2024-05-04T14:55:00+01:00,MW,-0.524
Pendine,2024-05-04T15:00:00+01:00,MW,-0.518
Pendine,2024-05-04T15:05:00+01:00,MW,-0.537
Pendine,2024-05-04T15:10:00+01:00,MW,-0.526
Pendine,2024-05-04T15:15:00+01:00,MW,-0.524
Pendine,2024-05-04T15:20:00+01:00,MW,-0.527
Pendine,2024-05-04T15:25:00+01:00,MW,-0.528
Pendine,2024-05-04T15:30:00+01:00,MW,-0.522
Pendine,2024-05-04T15:35:00+01:00,MW,-0.527
Pendine,2024-05-04T15:40:00+01:00,MW,-0.523
Pendine,2024-05-04T15:45:00+01:00,MW,-0.531
Pendine,2024-05-04T15:50:00+01:00,MW,-0.526
Pendine,2024-05-04T15:55:00+01:00,MW,-0.528
Pendine,2024-05-04T16:00:00+01:00,MW,-0.524
Pendine,2024-05-04T16:05:00+01:00,MW,-0.527
Pendine,2024-05-04T16:10:00+01:00,MW,-0.531
Pendine,2024-05-04T16:15:00+01:00,MW,-0.566
Pendine,2024-05-04T16:20:00+01:00,MW,-0.583
Pendine,2024-05-04T16:25:00+01:00,MW,-0.594
Pendine,2024-05-04T16:30:00+01:00,MW,-0.61
Pendine,2024-05-04T16:35:00+01:00,MW,-0.621
Pendine,2024-05-04T16:40:00+01:00,MW,-0.631
Pendine,2024-05-04T16:45:00+01:00,MW,-0.614
Pendine,2024-05-04T16:50:00+01:00,MW,-0.617
Pendine,2024-05-04T16:55:00+01:00,MW,-0.619
Pendine,2024-05-04T17:00:00+01:00,MW,-0.616
Pendine,2024-05-04T17:05:00+01:00,MW,-0.613
Pendine,2024-05-04T17:10:00+01:00,MW,-0.634
Pendine,2024-05-04T17:15:00+01:00,MW,-0.669
Pendine,2024-05-04T17:20:00+01:00,MW,-0.66
Pendine,2024-05-04T17:25:00+01:00,MW,-0.662
Pendine,2024-05-04T17:30:00+01:00,MW,-0.658
Pendine,2024-05-04T17:35:00+01:00,MW,-0.681
Pendine,2024-05-04T17:40:00+01:00,MW,-0.713
Pendine,2024-05-04T17:45:00+01:00,MW,-0.704
Pendine,2024-05-04T17:50:00+01:00,MW,-0.704
Pendine,2024-05-04T17:55:00+01:00,MW,-0.706
Pendine,2024-05-04T18:00:00+01:00,MW,-0.702
Pendine,2024-05-04T18:05:00+01:00,MW,-0.702
Pendine,2024-05-04T18:10:00+01:00,MW,-0.709
Pendine,2024-05-04T18:15:00+01:00,MW,-0.705
Pendine,2024-05-04T18:20:00+01:00,MW,-0.704
Pendine,2024-05-04T18:25:00+01:00,MW,-0.709
Pendine,2024-05-04T18:30:00+01:00,MW,-0.698
Pendine,2024-05-04T18:35:00+01:00,MW,-0.712
Pendine,2024-05-04T18:40:00+01:00,MW,-0.699
Pendine,2024-05-04T18:45:00+01:00,MW,-0.712
Pendine,2024-05-04T18:50:00+01:00,MW,-0.713
Pendine,2024-05-04T18:55:00+01:00,MW,-0.697
Pendine,2024-05-04T19:00:00+01:00,MW,-0.71
Pendine,2024-05-04T19:05:00+01:00,MW,-0.741
Pendine,2024-05-04T19:10:00+01:00,MW,-0.755
Pendine,2024-05-04T19:15:00+01:00,MW,-0.761
Pendine,2024-05-04T19:20:00+01:00,MW,-0.749
Pendine,2024-05-04T19:25:00+01:00,MW,-0.748
Pendine,2024-05-04T19:30:00+01:00,MW,-0.75
Pendine,2024-05-04T19:35:00+01:00,MW,-0.75
Pendine,2024-05-04T19:40:00+01:00,MW,-0.747
Pendine,2024-05-04T19:45:00+01:00,MW,-0.748
Pendine,2024-05-04T19:50:00+01:00,MW,-0.734
Pendine,2024-05-04T19:55:00+01:00,MW,-0.696
Pendine,2024-05-04T20:00:00+01:00,MW,-0.71
Pendine,2024-05-04T20:05:00+01:00,MW,-0.703
Pendine,2024-05-04T20:10:00+01:00,MW,-0.701
Pendine,2024-05-04T20:15:00+01:00,MW,-0.707
Pendine,2024-05-04T20:20:00+01:00,MW,-0.703
Pendine,2024-05-04T20:25:00+01:00,MW,-0.724
Pendine,2024-05-04T20:30:00+01:00,MW,-0.745
Pendine,2024-05-04T20:35:00+01:00,MW,-0.75
Pendine,2024-05-04T20:40:00+01:00,MW,-0.752
Pendine,2024-05-04T20:45:00+01:00,MW,-0.753
Pendine,2024-05-04T20:50:00+01:00,MW,-0.719
Pendine,2024-05-04T20:55:00+01:00,MW,-0.701
Pendine,2024-05-04T21:00:00+01:00,MW,-0.752
Pendine,2024-05-04T21:05:00+01:00,MW,-0.748
Pendine,2024-05-04T21:10:00+01:00,MW,-0.719
Pendine,2024-05-04T21:15:00+01:00,MW,-0.704
Pendine,2024-05-04T21:20:00+01:00,MW,-0.704
Pendine,2024-05-04T21:25:00+01:00,MW,-0.705
Pendine,2024-05-04T21:30:00+01:00,MW,-0.7
Pendine,2024-05-04T21:35:00+01:00,MW,-0.696
Pendine,2024-05-04T21:40:00+01:00,MW,-0.659
Pendine,2024-05-04T21:45:00+01:00,MW,-0.659
Pendine,2024-05-04T21:50:00+01:00,MW,-0.657
Pendine,2024-05-04T21:55:00+01:00,MW,-0.663
Pendine,2024-05-04T22:00:00+01:00,MW,-0.661
Pendine,2024-05-04T22:05:00+01:00,MW,-0.649
Pendine,2024-05-04T22:10:00+01:00,MW,-0.671
Pendine,2024-05-04T22:15:00+01:00,MW,-0.66
Pendine,2024-05-04T22:20:00+01:00,MW,-0.655
Pendine,2024-05-04T22:25:00+01:00,MW,-0.655
Pendine,2024-05-04T22:30:00+01:00,MW,-0.643
Pendine,2024-05-04T22:35:00+01:00,MW,-0.624
Pendine,2024-05-04T22:40:00+01:00,MW,-0.61
Pendine,2024-05-04T22:45:00+01:00,MW,-0.605
Pendine,2024-05-04T22:50:00+01:00,MW,-0.624
Pendine,2024-05-04T22:55:00+01:00,MW,-0.62
Pendine,2024-05-04T23:00:00+01:00,MW,-0.608
Pendine,2024-05-04T23:05:00+01:00,MW,-0.616
Pendine,2024-05-04T23:10:00+01:00,MW,-0.615
Pendine,2024-05-04T23:15:00+01:00,MW,-0.608
Pendine,2024-05-04T23:20:00+01:00,MW,-0.618
Pendine,2024-05-04T23:25:00+01:00,MW,-0.597
Pendine,2024-05-04T23:30:00+01:00,MW,-0.588
Pendine,2024-05-04T23:35:00+01:00,MW,-0.579
Pendine,2024-05-04T23:40:00+01:00,MW,-0.566
Pendine,2024-05-04T23:45:00+01:00,MW,-0.571
Pendine,2024-05-04T23:50:00+01:00,MW,-0.561
Pendine,2024-05-04T23:55:00+01:00,MW,-0.565
Pendine,2024-05-05T00:00:00+01:00,MW,-0.561
